Terminal Aerodrome Forecast
Issued by NWS Rapid City, SD

Home | Current Version | Previous Version | Text Only | Print | Product List | Glossary Off
Versions: 1 2 3 4 5 6 7 8 9 10 11 12 13 14 15 16 17 18

974
FTUS43 KUNR 200520
TAFRAP
TAF
KRAP 200520Z 2006/2106 34006KT P6SM SCT025 OVC050
      TEMPO 2007/2011 5SM -SHSN BKN025
     FM202000 36011KT 1SM -SN OVC011=

USA.gov is the U.S. government's official web portal to all federal, state and local government web resources and services.